When you browse on this site, cookies collect data to enhance your experience and personalize the content and advertising you see.
Visit our Privacy Policy to learn more. By continuing to use the site, you agree to this use of cookies and data.
  • In Slovakia
  • List of Countries
  • For 7 days
  • Water Temperature
  • Weather Map
  • Weather Widgets
  • user-avatar
    Login

    Hourly Weather Sidi Bu-l-Abbas

    Today, 6 December, Friday

    Time Temperature Precipitation Wind Pressure Humidity
    00:00 +12°C° 0 mm 5 mps 720 mmHg 52%
    01:00 +12°C° 0 mm 5 mps 720 mmHg 52%
    02:00 +12°C° 0 mm 5 mps 720 mmHg 52%
    03:00 +10°C° 0 mm 5 mps 719 mmHg 52%
    04:00 +10°C° 0 mm 6 mps 720 mmHg 53%
    05:00 +10°C° 0 mm 6 mps 720 mmHg 54%
    06:00 +10°C° 0 mm 6 mps 720 mmHg 54%
    07:00 +11°C° 0 mm 6 mps 721 mmHg 53%
    08:00 +13°C° 0 mm 6 mps 721 mmHg 51%
    09:00 +14°C° 0 mm 7 mps 721 mmHg 50%
    10:00 +15°C° 0 mm 6 mps 721 mmHg 46%
    11:00 +16°C° 0 mm 6 mps 722 mmHg 41%
    12:00 +19°C° 0 mm 6 mps 722 mmHg 37%
    13:00 +19°C° 0 mm 5 mps 721 mmHg 37%
    14:00 +19°C° 0 mm 4 mps 721 mmHg 36%
    15:00 +19°C° 0 mm 3 mps 720 mmHg 36%
    16:00 +18°C° 0 mm 3 mps 721 mmHg 41%
    17:00 +16°C° 0 mm 3 mps 721 mmHg 46%
    18:00 +15°C° 0 mm 2 mps 721 mmHg 51%
    19:00 +15°C° 0 mm 2 mps 721 mmHg 52%
    20:00 +13°C° 0 mm 3 mps 721 mmHg 52%
    21:00 +13°C° 0 mm 3 mps 721 mmHg 52%
    22:00 +13°C° 0 mm 3 mps 722 mmHg 53%
    23:00 +12°C° 0 mm 3 mps 722 mmHg 54%

    Tomorrow, 7 December, Saturday

    Time Temperature Precipitation Wind Pressure Humidity
    00:00 +12°C° 0 mm 3 mps 722 mmHg 54%
    01:00 +13°C° 0 mm 2 mps 722 mmHg 55%
    02:00 +12°C° 0 mm 2 mps 721 mmHg 55%
    03:00 +12°C° 0 mm 2 mps 721 mmHg 56%
    04:00 +12°C° 0 mm 1 mps 721 mmHg 56%
    05:00 +12°C° 0 mm 1 mps 722 mmHg 57%
    06:00 +12°C° 0 mm 1 mps 722 mmHg 57%
    07:00 +13°C° 0 mm 1 mps 722 mmHg 54%
    08:00 +14°C° 0 mm 1 mps 723 mmHg 51%
    09:00 +15°C° 0 mm 1 mps 723 mmHg 48%
    10:00 +16°C° 0 mm 1 mps 723 mmHg 46%
    11:00 +18°C° 0 mm 1 mps 723 mmHg 44%
    12:00 +18°C° 0 mm 2 mps 723 mmHg 42%
    13:00 +18°C° 0 mm 2 mps 723 mmHg 44%
    14:00 +18°C° 0 mm 3 mps 723 mmHg 46%
    15:00 +18°C° 0 mm 3 mps 723 mmHg 48%
    16:00 +16°C° 0.1 mm 3 mps 723 mmHg 57%
    17:00 +15°C° 0.1 mm 2 mps 724 mmHg 65%
    18:00 +14°C° 0.1 mm 2 mps 724 mmHg 74%
    19:00 +13°C° 0 mm 2 mps 724 mmHg 75%
    20:00 +13°C° 0 mm 2 mps 725 mmHg 77%
    21:00 +12°C° 0 mm 1 mps 725 mmHg 78%
    22:00 +12°C° 0 mm 2 mps 726 mmHg 79%
    23:00 +12°C° 0 mm 2 mps 726 mmHg 80%

    Day after tomorrow, 8 December, Sunday

    Time Temperature Precipitation Wind Pressure Humidity
    00:00 +12°C° 0 mm 2 mps 726 mmHg 81%
    01:00 +10°C° 0 mm 2 mps 726 mmHg 84%
    02:00 +10°C° 0 mm 2 mps 726 mmHg 87%
    03:00 +10°C° 0 mm 2 mps 726 mmHg 89%
    04:00 +10°C° 0 mm 2 mps 726 mmHg 91%
    05:00 +9°C° 0 mm 2 mps 726 mmHg 92%
    06:00 +10°C° 0 mm 1 mps 726 mmHg 94%
    07:00 +11°C° 0 mm 1 mps 727 mmHg 92%
    08:00 +12°C° 0 mm 1 mps 727 mmHg 89%
    09:00 +12°C° 0 mm 2 mps 728 mmHg 86%
    10:00 +13°C° 0 mm 1 mps 728 mmHg 79%
    11:00 +14°C° 0 mm 1 mps 728 mmHg 71%
    12:00 +15°C° 0 mm 1 mps 728 mmHg 63%
    13:00 +16°C° 0 mm 1 mps 727 mmHg 60%
    14:00 +16°C° 0 mm 2 mps 727 mmHg 58%
    15:00 +17°C° 0 mm 2 mps 727 mmHg 56%
    16:00 +16°C° 0 mm 2 mps 727 mmHg 63%
    17:00 +14°C° 0 mm 1 mps 727 mmHg 69%
    18:00 +13°C° 0 mm 1 mps 727 mmHg 76%
    19:00 +13°C° 0 mm 1 mps 727 mmHg 78%
    20:00 +13°C° 0 mm 1 mps 727 mmHg 79%
    21:00 +12°C° 0 mm 1 mps 727 mmHg 80%
    22:00 +12°C° 0 mm 1 mps 727 mmHg 79%
    23:00 +12°C° 0 mm 1 mps 727 mmHg 77%

    9 December, Monday

    Time Temperature Precipitation Wind Pressure Humidity
    00:00 +12°C° 0 mm 1 mps 727 mmHg 75%
    01:00 +12°C° 0 mm 1 mps 727 mmHg 73%
    02:00 +12°C° 0 mm 2 mps 727 mmHg 71%
    03:00 +10°C° 0 mm 2 mps 726 mmHg 69%
    04:00 +10°C° 0 mm 2 mps 726 mmHg 68%
    05:00 +10°C° 0 mm 2 mps 726 mmHg 66%
    06:00 +10°C° 0 mm 2 mps 726 mmHg 64%
    07:00 +12°C° 0 mm 2 mps 727 mmHg 59%
    08:00 +14°C° 0 mm 2 mps 727 mmHg 54%
    09:00 +15°C° 0 mm 2 mps 728 mmHg 50%
    10:00 +16°C° 0 mm 2 mps 727 mmHg 45%
    11:00 +17°C° 0 mm 3 mps 727 mmHg 41%
    12:00 +18°C° 0 mm 3 mps 727 mmHg 36%
    13:00 +18°C° 0 mm 3 mps 727 mmHg 38%
    14:00 +18°C° 0 mm 4 mps 727 mmHg 39%
    15:00 +18°C° 0 mm 4 mps 726 mmHg 40%
    16:00 +17°C° 0 mm 3 mps 726 mmHg 48%
    17:00 +15°C° 0 mm 2 mps 726 mmHg 56%
    18:00 +14°C° 0 mm 1 mps 726 mmHg 63%
    19:00 +14°C° 0 mm 1 mps 726 mmHg 63%
    20:00 +13°C° 0 mm 1 mps 726 mmHg 63%
    21:00 +13°C° 0 mm 1 mps 727 mmHg 63%
    22:00 +13°C° 0 mm 1 mps 727 mmHg 63%
    23:00 +13°C° 0 mm 1 mps 727 mmHg 63%

    10 December, Tuesday

    Time Temperature Precipitation Wind Pressure Humidity
    00:00 +13°C° 0 mm 1 mps 727 mmHg 63%
    01:00 +12°C° 0 mm 1 mps 726 mmHg 65%
    02:00 +12°C° 0 mm 1 mps 726 mmHg 67%
    03:00 +12°C° 0 mm 1 mps 726 mmHg 69%
    04:00 +11°C° 0 mm 1 mps 726 mmHg 71%
    05:00 +11°C° 0 mm 1 mps 726 mmHg 72%
    06:00 +11°C° 0 mm 1 mps 726 mmHg 73%
    07:00 +12°C° 0 mm 1 mps 726 mmHg 69%
    08:00 +14°C° 0 mm 1 mps 727 mmHg 65%
    09:00 +15°C° 0 mm 1 mps 728 mmHg 60%
    10:00 +16°C° 0 mm 1 mps 727 mmHg 57%
    11:00 +17°C° 0 mm 2 mps 727 mmHg 53%
    12:00 +18°C° 0 mm 2 mps 727 mmHg 50%
    13:00 +18°C° 0 mm 2 mps 727 mmHg 49%
    14:00 +18°C° 0 mm 2 mps 726 mmHg 47%
    15:00 +18°C° 0 mm 2 mps 726 mmHg 46%
    16:00 +18°C° 0 mm 1 mps 726 mmHg 54%
    17:00 +15°C° 0 mm 1 mps 726 mmHg 62%
    18:00 +13°C° 0 mm 0 mps 726 mmHg 71%
    19:00 +13°C° 0 mm 0 mps 726 mmHg 69%
    20:00 +13°C° 0 mm 1 mps 726 mmHg 68%
    21:00 +13°C° 0 mm 1 mps 726 mmHg 66%
    22:00 +13°C° 0 mm 1 mps 726 mmHg 63%
    23:00 +13°C° 0 mm 1 mps 726 mmHg 60%

    11 December, Wednesday

    Time Temperature Precipitation Wind Pressure Humidity
    00:00 +12°C° 0 mm 1 mps 725 mmHg 57%
    01:00 +12°C° 0 mm 1 mps 725 mmHg 55%
    02:00 +12°C° 0 mm 1 mps 725 mmHg 53%
    03:00 +12°C° 0 mm 1 mps 725 mmHg 51%
    04:00 +12°C° 0 mm 2 mps 724 mmHg 51%
    05:00 +10°C° 0 mm 2 mps 724 mmHg 51%
    06:00 +10°C° 0 mm 2 mps 724 mmHg 52%
    07:00 +13°C° 0 mm 2 mps 724 mmHg 50%
    08:00 +14°C° 0 mm 2 mps 725 mmHg 49%
    09:00 +15°C° 0 mm 2 mps 725 mmHg 48%
    10:00 +18°C° 0 mm 1 mps 725 mmHg 43%
    11:00 +19°C° 0 mm 1 mps 724 mmHg 38%
    12:00 +20°C° 0 mm 1 mps 724 mmHg 34%
    13:00 +20°C° 0 mm 1 mps 724 mmHg 36%
    14:00 +19°C° 0 mm 2 mps 723 mmHg 39%
    15:00 +19°C° 0 mm 2 mps 723 mmHg 41%
    16:00 +17°C° 0 mm 2 mps 723 mmHg 49%
    17:00 +16°C° 0 mm 1 mps 722 mmHg 57%
    18:00 +15°C° 0 mm 1 mps 722 mmHg 66%
    19:00 +15°C° 0 mm 1 mps 722 mmHg 67%
    20:00 +15°C° 0 mm 1 mps 723 mmHg 68%
    21:00 +14°C° 0 mm 1 mps 723 mmHg 69%
    22:00 +14°C° 0 mm 1 mps 723 mmHg 69%
    23:00 +14°C° 0 mm 1 mps 722 mmHg 69%
    Show more